Regional Weather Roundup
Issued by NWS

Home | Current Version | Previous Version | Graphics & Text | Print | Product List | Glossary On
Versions: 1 2 3 4 5 6 7 8 9 10 11 12 13 14 15 16 17 18 19 20 21 22 23 24 25 26 27 28 29 30 31 32 33 34 35 36 37 38 39 40 41 42 43 44 45 46 47 48 49 50
000
ASUS43 KMKX 250159
RWRWI

WISCONSIN REGIONAL WEATHER ROUNDUP
NATIONAL WEATHER SERVICE MILWAUKEE/SULLIVAN WI
800 PM CST TUE JAN 24 2017

NOTE: "FAIR" INDICATES FEW OR NO CLOUDS BELOW 12,000 FEET WITH NO
SIGNIFICANT WEATHER AND/OR OBSTRUCTIONS TO VISIBILITY.

WIZ001-002-006>008-014>016-023>028-250300-
NORTHWEST WISCONSIN

CITY           SKY/WX    TMP DP  RH WIND       PRES   REMARKS
SUPERIOR ARPT  CLOUDY    32  26  79 NE7       29.84F WCI  26
ASHLAND        CLOUDY    32  26  78 CALM      29.84F
HAYWARD        CLOUDY    31  26  82 N8        29.81S WCI  23
SIREN          CLOUDY    31  27  83 NE3       29.83R
CUMBERLAND     CLOUDY    32  28  86 N5        29.79S WCI  27
RICE LAKE      CLOUDY    32  29  89 NE6       29.81S WCI  27
CHETEK         CLOUDY    33  29  87 CALM      29.80R
LADYSMITH      CLOUDY    33  31  93 NE3       29.80F
EAU CLAIRE     NOT AVBL
MENOMONIE        N/A    N/A N/A N/A MISG        N/A
NEW RICHMOND   CLOUDY    32  29  89 E7        29.80S WCI  26
OSCEOLA        CLOUDY    32  28  85 NE8       29.84R WCI  25
$$

WIZ003>005-009-010-017-018-250300-
NORTH CENTRAL WISCONSIN

CITY           SKY/WX    TMP DP  RH WIND       PRES   REMARKS
MANITOWISH WTR CLOUDY    31  31 100 CALM      29.79F
ARBOR VITAE    LGT SNOW  34  33  94 CALM      29.79F
WOODRUFF       LGT SNOW  34  33  94 CALM      29.79F
RHINELANDER    CLOUDY    34  31  88 E9        29.78F WCI  27
EAGLE RIVER    LGT SNOW  32  32 100 CALM      29.79S
LAND O LAKES   CLOUDY    32  32 100 CALM      29.80F
PHILLIPS       CLOUDY    32  31  96 E3        29.78F
TOMAHAWK       CLOUDY    33  29  88 CALM      29.78F
MEDFORD        CLOUDY    32  29  88 NE6       29.76F WCI  26
MERRILL        CLOUDY    34  31  90 NE7         N/A  WCI  28
$$

WIZ029-030-035-036-043>047-250300-
CENTRAL WISCONSIN

CITY           SKY/WX    TMP DP  RH WIND       PRES   REMARKS
WAUSAU         CLOUDY    35  30  82 NE5       29.76F WCI  31
MOSINEE        CLOUDY    34  32  93 E5        29.78F WCI  30
MARSHFIELD     CLOUDY    33  28  81 E5        29.76F WCI  29
STEVENS POINT  CLOUDY    32  30  92 E5        29.78F WCI  28
WAUPACA        CLOUDY    37  32  83 CALM      29.80S
WAUTOMA        CLOUDY    34  31  88 E7        29.80R WCI  28
WISC RAPIDS    CLOUDY    34  31  88 E6        29.79S WCI  29
CAMP DOUGLAS   NOT AVBL
$$

WIZ011>013-019>022-031-037>040-048>050-250300-
NORTHEAST WISCONSIN

CITY           SKY/WX    TMP DP  RH WIND       PRES   REMARKS
ANTIGO         CLOUDY    32  32  97 NE8       29.78F WCI  25
SHAWANO        CLOUDY    36  32  87 NE5       29.80F WCI  32
OCONTO         CLOUDY    34  33  96 CALM      29.81F
STURGEON BAY   CLOUDY    35  34  96 CALM      29.81F
GREEN BAY      CLOUDY    38  35  89 N5        29.80F WCI  34
MANITOWOC      NOT AVBL
APPLETON       CLOUDY    36  34  93 NE7       29.78S WCI  30
CLINTONVILLE   CLOUDY    34  32  93 CALM      29.80S
OSHKOSH        CLOUDY    35  31  85 CALM      29.79S
$$

WIZ032>034-041-042-053>061-250300-
SOUTHWEST WISCONSIN

CITY           SKY/WX    TMP DP  RH WIND       PRES   REMARKS
LA CROSSE      CLOUDY    38  31  76 VRB3      29.77R
SPARTA         CLOUDY    34  31  90 NE5       29.78S WCI  30
VIROQUA        CLOUDY    33  32  96 E10       29.73F WCI  25
BOSCOBEL       CLOUDY    37  31  78 CALM      29.78R
PRAIRIE DU CHI RAIN      35  32  88 E10       29.75S WCI  27
PLATTEVILLE    CLOUDY    33  33 100 E8        29.75R VSB 3/4 WCI  26
$$

WIZ056-057-062-063-064-067-068-250300-
SOUTH CENTRAL WISCONSIN

CITY           SKY/WX    TMP DP  RH WIND       PRES   REMARKS
REEDSBURG      CLOUDY    33  32  94 E5        29.76S WCI  29
BARABOO/DELLS  CLOUDY    33  31  92 E6        29.76F WCI  28
LONE ROCK      CLOUDY    36  31  82 E9        29.77R WCI  29
MINERAL POINT  CLOUDY    34  34 100 SE7       29.75R WCI  28
MADISON        CLOUDY    34  31  88 E10G23    29.75F WCI  26
MIDDLETON      CLOUDY    36  34  95 E9        29.74F WCI  29
WATERTOWN      CLOUDY    34  34  99 E7        29.78F WCI  28
MONROE         CLOUDY    32  32 100 E8        29.75R FOG     WCI  25
JANESVILLE     CLOUDY    36  36 100 E9        29.73F WCI  29
$$

WIZ051-052-058>065-066-070>072-250300-
SOUTHEAST WISCONSIN

CITY           SKY/WX    TMP DP  RH WIND       PRES   REMARKS
MILWAUKEE      CLOUDY    37  32  82 SE8       29.79F WCI  31
WAUKESHA       CLOUDY    34  32  93 E6        29.80F WCI  29
MILWAUKEE/TIMM CLOUDY    36  30  80 E3        29.81S
RACINE         CLOUDY    35  31  85 E7        29.80F WCI  29
KENOSHA        CLOUDY    35  32  88 E8        29.79F WCI  29
FOND DU LAC    CLOUDY    36  31  82 E6        29.79S WCI  31
SHEBOYGAN      CLOUDY    35  32  88 CALM      29.80S
WEST BEND      CLOUDY    34  34 100 E6        29.79F WCI  29
JUNEAU         CLOUDY    34  32  93 E5        29.80S WCI  30
$$

LSZ147-162-250300-
LAKE SUPERIOR

STATION/POSITION TIME  TEMP    WIND        PRES    WAVE
                       AIR SEA DIR/SP/G            HT/PER
                 (UTC) (F)     (DEG/KT/KT) (MB)    (FT/S)
DEVILS ISLAND    0100   34     290/  6/  7 1011.6F
PORT WING        0140   33      80/  3/  4 1011.2S
SAXON HARBOR     0130   33      CALM  /  2 1010.5S
$$

LMZ867-665-643>646-250300-
LAKE MICHIGAN

STATION/POSITION TIME  TEMP    WIND        PRES    WAVE
                       AIR SEA DIR/SP/G            HT/PER
                 (UTC) (F)     (DEG/KT/KT) (MB)    (FT/S)
CHAMBERS ISLAND  0140   34        CALM     1009.5S
NORTHPORT PIER   0140   35     310/  3/  5 1009.5F
SISTER BAY       0050   34        CALM       N/A
KEWAUNEE LAKESHO 0130   36      CALM  /  3 1008.8F
SHEBOYGAN LAKESH 0100   38      20/  5/  6 1009.4F
PORT WASHINGTON  0130   38     110/  4/  6 1010.5S
KENOSHA   LAKESH 0100   35     110/  5/  6 1010.5
$$

TC  - TEMPERATURE IN CELSIUS
VSB - VISIBILITY IN STATUTE MILES
WCI - WIND CHILL INDEX
HX  - HEAT INDEX





USA.gov is the U.S. government's official web portal to all federal, state and local government web resources and services.